Regional Weather Roundup
Issued by NWS

Home | Current Version | Previous Version | Graphics & Text | Print | Product List | Glossary On
Versions: 1 2 3 4 5 6 7 8 9 10 11 12 13 14 15 16 17 18 19 20 21 22 23 24 25 26 27 28 29 30 31 32 33 34 35 36 37 38 39 40 41 42 43 44 45 46 47 48 49 50
000
ASUS43 KLOT 011612
RWRIL

ILLINOIS REGIONAL WEATHER ROUNDUP
NATIONAL WEATHER SERVICE CHICAGO/ROMEOVILLE IL
1100 AM CDT WED JUL 01 2015

NOTE: "FAIR" INDICATES FEW OR NO CLOUDS BELOW 12,000 FEET WITH NO
SIGNIFICANT WEATHER AND/OR OBSTRUCTIONS TO VISIBILITY.

* THESE STATIONS ARE NOT UNDER NWS QUALITY CONTROL. THEY ALSO MAY NOT
  REPORT WEATHER SUCH AS PRECIPITATION OR FOG.

ILZ001-002-007-009-015-016-024-011700-
NORTHWEST ILLINOIS

CITY           SKY/WX    TMP DP  RH WIND       PRES   REMARKS
MOLINE         CLOUDY    65  59  81 E9        29.96R
STERLING*      CLOUDY    66  59  77 E7        29.97S
SAVANNA*       MOSUNNY   69  58  69 E6        29.97F
$$

ILZ003-004-008-010-011-017-018-011700-
NORTH CENTRAL ILLINOIS

CITY           SKY/WX    TMP DP  RH WIND       PRES   REMARKS
ROCKFORD       CLOUDY    67  55  65 CALM      29.99S
FREEPORT*      CLOUDY    63  57  81 NE6       30.00S
ROCHELLE*      SUNNY     65  57  76 NE6       29.98F
DE KALB*       MOSUNNY   63  56  78 NE8       29.98F
PERU*          MOSUNNY   67  59  75 NE8       29.97S
$$

ILZ005-006-012>014-019>023-011700-
NORTHEAST ILLINOIS

CITY           SKY/WX    TMP DP  RH WIND       PRES   REMARKS
CHICAGO-OHARE  CLOUDY    65  54  67 NE6       29.97S
CHICAGO-MIDWAY CLOUDY    65  54  67 NE7       29.97S
AURORA         SUNNY     68  57  68 N8        29.97F
LANSING*       SUNNY     65  52  63 NE10      29.97F
JOLIET*        PTSUNNY   68  58  72 NE7       29.97R
WAUKEGAN       PTSUNNY   59  52  77 E10       29.98R
DUPAGE AIRPORT CLOUDY    65  55  70 NE6       29.97S
KANKAKEE*      CLOUDY    66  58  76 NE7       29.97S
WHEELING       CLOUDY    65  53  65 VRB5      29.99S
MORRIS*        CLOUDY    66  57  71 E5        29.96R
ROMEOVILLE*    CLOUDY    65  55  68 E8        29.97S
NORTHERLY ISL    N/A     61  53  75 NE5         N/A
$$

LMZ740>746-011700-
SOUTHERN LAKE MICHIGAN

STATION/POSITION SKY/WX   TEMP    WIND        PRES    VSBY  WAVE
                          AIR SEA DIR/SP/G                  HT/PER
                          (F)     (DEG/KT/KT) (MB)    (MI)  (FT/S)
HARRISON CRIB              56      20/  8/  8   N/A
BURNHAM HARBOR             60      40/  5/  8   N/A
CALUMET HARBOR             58      20/  6/  9   N/A
BURNS HARBOR               58      10/  8/  9 1015.9R
MICHIGAN CITY              59     340/  7/  8   N/A
MICHIGAN CITY 6N           57 65   30/  8/ 12   N/A           3/ 6
ST. JOSEPH                 58 63                N/A           4/ 6
$$

ILZ025>027-034>036-040-047-049-050-058-095>099-011700-
WEST-CENTRAL ILLINOIS

CITY           SKY/WX    TMP DP  RH WIND       PRES   REMARKS
QUINCY         MOSUNNY   79  66  64 W6        29.91S HX  81
GALESBURG*     MOSUNNY   70  65  83 N10       29.94S
MACOMB*        CLOUDY    73  68  83 CALM      29.95R
JACKSONVILLE*  MOSUNNY   80  69  69 NW5       29.91F HX  82
PITTSFIELD*    MOSUNNY   79  66  65 SW6       29.92F HX  81
$$

ILZ028>032-037-038-041>044-048-051>054-059>061-011700-
CENTRAL ILLINOIS

CITY           SKY/WX    TMP DP  RH WIND       PRES   REMARKS
PONTIAC        CLOUDY    68  63  82 E8        29.97R
BLOOMINGTON    PTSUNNY   69  64  84 SE7       29.96R
DECATUR        CLOUDY    73  66  78 VRB3      29.93S HAZE
PEORIA         SUNNY     73  63  70 NE9       29.94R
LACON*         PTSUNNY   67  59  74 E7        29.95R
LINCOLN*       CLOUDY    72  67  84 SE3       29.94S
SPRINGFIELD    PTSUNNY   79  69  71 NW9       29.92S HX  81
TAYLORVILLE    MOSUNNY   75  68  78 W8        29.93S
$$

ILZ033-039-045-046-055>057-062-063-011700-
EAST-CENTRAL ILLINOIS

CITY           SKY/WX    TMP DP  RH WIND       PRES   REMARKS
CHAMPAIGN      PTSUNNY   70  64  81 SE7       29.94S
DANVILLE*      PTSUNNY   68  61  79 E3        29.93S
RANTOUL*       PTSUNNY   71  62  74 E6        29.95S
MATTOON        PTSUNNY   73  68  84 SE6       29.93R
PARIS*         CLOUDY    71  66  84 SE5       29.96R
$$

ILZ079-100>102-011700-
SOUTHWEST ILLINOIS

CITY           SKY/WX    TMP DP  RH WIND       PRES   REMARKS
ALTON          CLOUDY    75  75 100 SW12      29.94S
BELLEVILLE     CLOUDY    75  71  88 W12       29.93R
CAHOKIA*       CLOUDY    76  68  76 W7        29.93S
SPARTA*        CLOUDY    72  68  87 SW8       29.97R
$$

ILZ064>066-069>071-074>076-080>082-084>086-088>090-092>094-011700-
SOUTH-CENTRAL ILLINOIS

CITY           SKY/WX    TMP DP  RH WIND       PRES   REMARKS
CARBONDALE     CLOUDY    72  69  90 SW8       29.97S
CAIRO*         DRIZZLE   72  69  90 W10       29.99S
EFFINGHAM*     PTSUNNY   77  66  67 W6        29.95S
MARION         CLOUDY    73  70  88 SW9       29.98F
MT. VERNON     CLOUDY    73  66  78 W5        29.96S
CENTRALIA*     CLOUDY    72  68  86 W3        29.95S
SALEM*         CLOUDY    75  70  83 SW3       29.95S
METROPOLIS*    CLOUDY    74  73  99 SW6       29.99S
$$

ILZ067-068-072-073-078-083-087-091-011700-
SOUTHEAST ILLINOIS

CITY           SKY/WX    TMP DP  RH WIND       PRES   REMARKS
LAWRENCEVILLE  CLOUDY    76  69  79 SW7       29.94S
FLORA*         CLOUDY    76  70  82 SW8       29.94S
FAIRFIELD*     CLOUDY    73  71  96 SW3       29.94R FOG
HARRISBURG*    CLOUDY    73  70  92 SW3       29.98R
ROBINSON*      CLOUDY    75  68  77 S6        29.94S
CARMI*         CLOUDY    74  67  79 SW6       29.96R HAZE
$$

ABBREVIATIONS USED IN REMARKS
   TC - TEMPERATURE IN CELSIUS
  WCI - WIND CHILL INDEX
   HX - HEAT INDEX
  VSB - VISIBILITY
$$




USA.gov is the U.S. government's official web portal to all federal, state and local government web resources and services.